Location: Unspecified
(44.4377°N, 88.0525°W)
Time: 17:01:38
(UTC-05:00)

Okean 3 - Pass Details

Date: 26 May 2018
Orbit: 578 x 601 km, 82.5° (Epoch: 16 August)

Event Time Altitude Azimuth Distance (km) Brightness Sun altitude
Rises 21:38:00 0° 230° (SW) 2,833 7.0 -11.1°
Reaches altitude 10° 21:40:58 10° 253° (WSW) 1,933 6.5 -11.5°
Maximum altitude 21:43:37 16° 291° (WNW) 1,581 6.7 -11.8°
Drops below altitude 10° 21:46:17 10° 330° (NNW) 1,935 7.5 -12.1°
Sets 21:49:16 0° 352° (N) 2,837 7.9 -12.5°
